Time,TemperatureF,DewpointF,PressureIn,WindDirection,WindDirectionDegrees,WindSpeedMPH,WindSpeedGustMPH,Humidity,HourlyPrecipIn,Conditions,Clouds,dailyrainin,SoftwareType,DateUTC
2013-03-25 05:08:00,21.8,19.6,29.47,NNE,13,0.0,4.0,91,0.00,,,0.00,Wunderground v.1.15,2013-03-25 09:08:00,
2013-03-25 05:18:00,21.6,19.4,29.47,NNE,13,0.0,0.0,91,0.00,,,0.00,Wunderground v.1.15,2013-03-25 09:18:00,
2013-03-25 05:29:00,21.5,19.3,29.47,NNE,13,0.0,0.0,91,0.00,,,0.00,Wunderground v.1.15,2013-03-25 09:29:00,
2013-03-25 05:38:00,21.3,19.1,29.46,NNE,13,0.0,1.0,91,0.00,,,0.00,Wunderground v.1.15,2013-03-25 09:38:00,
2013-03-25 05:49:00,21.2,19.2,29.46,NNE,13,0.0,0.0,92,0.00,,,0.00,Wunderground v.1.15,2013-03-25 09:49:00,
2013-03-25 05:58:00,21.2,19.0,29.46,NNE,13,0.0,0.0,91,0.00,,,0.00,Wunderground v.1.15,2013-03-25 09:58:00,
2013-03-25 06:08:00,21.3,19.3,29.46,NNE,13,0.0,3.0,92,0.00,,,0.00,Wunderground v.1.15,2013-03-25 10:08:00,
2013-03-25 06:19:00,21.5,19.5,29.46,NNE,13,0.0,0.0,92,0.00,,,0.00,Wunderground v.1.15,2013-03-25 10:19:00,
2013-03-25 06:28:00,21.3,19.3,29.46,NNE,13,0.0,0.0,92,0.00,,,0.00,Wunderground v.1.15,2013-03-25 10:28:00,
2013-03-25 06:38:00,21.3,19.3,29.46,NNE,13,0.0,0.0,92,0.00,,,0.00,Wunderground v.1.15,2013-03-25 10:38:00,
2013-03-25 06:48:00,21.1,19.1,29.46,NNE,13,0.0,0.0,92,0.00,,,0.00,Wunderground v.1.15,2013-03-25 10:48:00,
2013-03-25 06:59:00,21.2,19.2,29.46,NNE,13,0.0,0.0,92,0.00,,,0.00,Wunderground v.1.15,2013-03-25 10:59:00,
2013-03-25 07:08:00,21.2,19.2,29.45,NNE,13,0.0,2.0,92,0.00,,,0.00,Wunderground v.1.15,2013-03-25 11:08:00,
2013-03-25 07:18:00,21.6,19.6,29.46,NNE,13,0.0,0.0,92,0.00,,,0.00,Wunderground v.1.15,2013-03-25 11:18:00,
2013-03-25 07:28:00,22.8,20.6,29.46,NNE,13,0.0,0.0,91,0.00,,,0.00,Wunderground v.1.15,2013-03-25 11:28:00,
2013-03-25 07:38:00,24.3,21.8,29.45,NNE,13,0.0,0.0,90,0.00,,,0.00,Wunderground v.1.15,2013-03-25 11:38:00,
2013-03-25 07:48:00,26.4,23.1,29.45,NNE,13,0.0,0.0,87,0.00,,,0.00,Wunderground v.1.15,2013-03-25 11:48:00,
2013-03-25 07:58:00,28.3,23.2,29.45,NNE,13,1.0,1.0,81,0.00,,,0.01,Wunderground v.1.15,2013-03-25 11:58:00,
2013-03-25 08:08:00,29.3,23.6,29.45,NNE,13,0.0,2.0,79,0.00,,,0.01,Wunderground v.1.15,2013-03-25 12:08:00,
2013-03-25 08:19:00,30.2,23.5,29.45,NNE,13,0.0,0.0,76,0.00,,,0.01,Wunderground v.1.15,2013-03-25 12:19:00,
2013-03-25 08:28:00,30.4,23.1,29.45,ESE,105,1.0,1.0,74,0.00,,,0.01,Wunderground v.1.15,2013-03-25 12:28:00,
2013-03-25 08:38:00,29.4,23.1,29.45,NE,54,1.0,1.0,77,0.00,,,0.01,Wunderground v.1.15,2013-03-25 12:38:00,
2013-03-25 08:48:00,29.9,22.9,29.45,NE,54,0.0,0.0,75,0.00,,,0.01,Wunderground v.1.15,2013-03-25 12:48:00,
2013-03-25 08:59:00,29.9,23.3,29.45,NE,54,0.0,0.0,76,0.00,,,0.01,Wunderground v.1.15,2013-03-25 12:59:00,
2013-03-25 09:08:00,29.9,23.6,29.46,ENE,78,0.0,3.0,77,0.00,,,0.01,Wunderground v.1.15,2013-03-25 13:08:00,
2013-03-25 09:18:00,31.1,24.1,29.46,NE,44,1.0,3.0,75,0.00,,,0.01,Wunderground v.1.15,2013-03-25 13:18:00,
2013-03-25 09:28:00,31.3,24.3,29.45,NE,55,2.0,3.0,75,0.00,,,0.01,Wunderground v.1.15,2013-03-25 13:28:00,
2013-03-25 09:39:00,31.9,24.6,29.45,NE,56,1.0,1.0,74,0.00,,,0.01,Wunderground v.1.15,2013-03-25 13:39:00,
2013-03-25 09:48:00,32.5,24.5,29.45,ENE,61,2.0,2.0,72,0.00,,,0.01,Wunderground v.1.15,2013-03-25 13:48:00,
2013-03-25 09:58:00,33.8,25.4,29.45,ESE,119,0.0,0.0,71,0.00,,,0.01,Wunderground v.1.15,2013-03-25 13:58:00,
2013-03-25 10:08:00,33.9,24.8,29.44,NE,51,3.0,7.0,69,0.00,,,0.01,Wunderground v.1.15,2013-03-25 14:08:00,
2013-03-25 10:18:00,33.7,25.3,29.44,ENE,57,4.0,5.0,71,0.00,,,0.01,Wunderground v.1.15,2013-03-25 14:18:00,
2013-03-25 10:29:00,34.2,25.4,29.44,NE,37,5.0,5.0,70,0.00,,,0.01,Wunderground v.1.15,2013-03-25 14:29:00,
2013-03-25 10:38:00,34.9,25.8,29.44,NE,35,4.0,4.0,69,0.00,,,0.01,Wunderground v.1.15,2013-03-25 14:38:00,
2013-03-25 10:48:00,35.3,25.8,29.43,NE,37,4.0,4.0,68,0.00,,,0.01,Wunderground v.1.15,2013-03-25 14:48:00,
2013-03-25 10:58:00,35.3,25.4,29.43,ESE,103,4.0,4.0,67,0.00,,,0.01,Wunderground v.1.15,2013-03-25 14:58:00,
2013-03-25 11:08:00,36.0,25.7,29.42,ESE,113,3.0,3.0,66,0.00,,,0.01,Wunderground v.1.15,2013-03-25 15:08:00,
2013-03-25 11:18:00,36.5,25.5,29.42,NE,42,3.0,3.0,64,0.00,,,0.01,Wunderground v.1.15,2013-03-25 15:18:00,
2013-03-25 11:28:00,37.3,25.5,29.41,ESE,119,2.0,2.0,62,0.00,,,0.01,Wunderground v.1.15,2013-03-25 15:28:00,
2013-03-25 11:39:00,38.2,25.5,29.40,NE,51,2.0,6.0,60,0.00,,,0.01,Wunderground v.1.15,2013-03-25 15:39:00,
2013-03-25 11:48:00,37.9,24.8,29.40,ESE,109,4.0,4.0,59,0.00,,,0.01,Wunderground v.1.15,2013-03-25 15:48:00,
2013-03-25 11:58:00,39.2,24.8,29.40,ENE,65,4.0,8.0,56,0.00,,,0.01,Wunderground v.1.15,2013-03-25 15:58:00,
2013-03-25 12:08:00,39.0,25.0,29.39,ENE,67,5.0,5.0,57,0.00,,,0.01,Wunderground v.1.15,2013-03-25 16:08:00,
2013-03-25 12:18:00,39.4,24.6,29.39,ESE,103,5.0,10.0,55,0.00,,,0.01,Wunderground v.1.15,2013-03-25 16:18:00,
2013-03-25 12:28:00,38.9,24.5,29.38,SE,135,6.0,6.0,56,0.00,,,0.01,Wunderground v.1.15,2013-03-25 16:28:00,
2013-03-25 12:38:00,39.6,23.9,29.37,North,360,7.0,7.0,53,0.00,,,0.01,Wunderground v.1.15,2013-03-25 16:38:00,
2013-03-25 12:49:00,39.5,23.3,29.37,ENE,72,6.0,8.0,52,0.00,,,0.01,Wunderground v.1.15,2013-03-25 16:49:00,
2013-03-25 12:58:00,39.8,23.1,29.37,ENE,63,8.0,13.0,51,0.00,,,0.01,Wunderground v.1.15,2013-03-25 16:58:00,
2013-03-25 13:09:00,39.9,23.7,29.36,East,101,8.0,13.0,52,0.00,,,0.01,Wunderground v.1.15,2013-03-25 17:09:00,
2013-03-25 13:18:00,40.4,22.7,29.36,East,96,6.0,7.0,49,0.00,,,0.01,Wunderground v.1.15,2013-03-25 17:18:00,
2013-03-25 13:29:00,40.1,23.4,29.35,ENE,69,8.0,9.0,51,0.00,,,0.01,Wunderground v.1.15,2013-03-25 17:29:00,
2013-03-25 13:38:00,39.9,23.2,29.35,NNE,32,8.0,12.0,51,0.00,,,0.01,Wunderground v.1.15,2013-03-25 17:38:00,
2013-03-25 13:49:00,39.6,23.4,29.35,NE,56,9.0,12.0,52,0.00,,,0.01,Wunderground v.1.15,2013-03-25 17:49:00,
2013-03-25 13:58:00,39.7,23.5,29.34,NE,56,7.0,9.0,52,0.00,,,0.01,Wunderground v.1.15,2013-03-25 17:58:00,
2013-03-25 14:09:00,39.5,22.8,29.34,NE,46,9.0,19.0,51,0.00,,,0.01,Wunderground v.1.15,2013-03-25 18:09:00,
2013-03-25 14:18:00,39.8,23.1,29.34,ENE,57,8.0,8.0,51,0.00,,,0.01,Wunderground v.1.15,2013-03-25 18:18:00,
2013-03-25 14:28:00,40.3,23.1,29.33,ESE,106,4.0,8.0,50,0.00,,,0.01,Wunderground v.1.15,2013-03-25 18:28:00,
2013-03-25 14:38:00,39.8,23.1,29.33,NE,54,8.0,8.0,51,0.00,,,0.01,Wunderground v.1.15,2013-03-25 18:38:00,
2013-03-25 14:49:00,39.9,24.1,29.32,ENE,59,8.0,8.0,53,0.00,,,0.01,Wunderground v.1.15,2013-03-25 18:49:00,
2013-03-25 14:58:00,40.5,22.8,29.32,ESE,109,7.0,12.0,49,0.00,,,0.01,Wunderground v.1.15,2013-03-25 18:58:00,
2013-03-25 15:09:00,40.6,22.9,29.32,East,80,8.0,16.0,49,0.00,,,0.01,Wunderground v.1.15,2013-03-25 19:09:00,
2013-03-25 15:18:00,40.9,23.7,29.32,NE,42,6.0,8.0,50,0.00,,,0.01,Wunderground v.1.15,2013-03-25 19:18:00,
2013-03-25 15:29:00,41.3,23.6,29.31,ENE,69,8.0,8.0,49,0.00,,,0.01,Wunderground v.1.15,2013-03-25 19:29:00,
2013-03-25 15:38:00,41.6,22.8,29.31,East,81,8.0,8.0,47,0.00,,,0.01,Wunderground v.1.15,2013-03-25 19:38:00,
2013-03-25 15:49:00,41.0,21.8,29.31,ENE,66,7.0,7.0,46,0.00,,,0.01,Wunderground v.1.15,2013-03-25 19:49:00,
2013-03-25 15:58:00,41.0,21.8,29.30,ENE,76,6.0,7.0,46,0.00,,,0.01,Wunderground v.1.15,2013-03-25 19:58:00,
2013-03-25 16:08:00,41.1,22.4,29.30,East,84,8.0,8.0,47,0.00,,,0.01,Wunderground v.1.15,2013-03-25 20:08:00,
2013-03-25 16:19:00,41.4,22.7,29.30,ENE,57,8.0,11.0,47,0.00,,,0.01,Wunderground v.1.15,2013-03-25 20:19:00,
2013-03-25 16:28:00,40.7,22.5,29.30,NNE,25,9.0,9.0,48,0.00,,,0.01,Wunderground v.1.15,2013-03-25 20:28:00,
2013-03-25 16:39:00,40.0,22.8,29.29,NE,51,10.0,13.0,50,0.00,,,0.01,Wunderground v.1.15,2013-03-25 20:39:00,
2013-03-25 16:48:00,39.8,23.1,29.29,NE,51,9.0,11.0,51,0.00,,,0.01,Wunderground v.1.15,2013-03-25 20:48:00,
2013-03-25 16:58:00,39.9,22.7,29.28,NE,47,9.0,9.0,50,0.00,,,0.01,Wunderground v.1.15,2013-03-25 20:58:00,
2013-03-25 17:09:00,40.0,23.3,29.28,East,96,6.0,6.0,51,0.00,,,0.01,Wunderground v.1.15,2013-03-25 21:09:00,
2013-03-25 17:18:00,39.9,23.2,29.28,ENE,57,6.0,8.0,51,0.00,,,0.01,Wunderground v.1.15,2013-03-25 21:18:00,
2013-03-25 17:28:00,39.9,23.7,29.28,ENE,77,7.0,10.0,52,0.00,,,0.01,Wunderground v.1.15,2013-03-25 21:28:00,
2013-03-25 17:38:00,39.5,23.8,29.28,East,92,7.0,7.0,53,0.00,,,0.01,Wunderground v.1.15,2013-03-25 21:38:00,
2013-03-25 17:49:00,39.2,23.5,29.28,NE,48,8.0,8.0,53,0.00,,,0.01,Wunderground v.1.15,2013-03-25 21:49:00,
2013-03-25 17:58:00,39.1,23.8,29.29,ENE,67,7.0,10.0,54,0.00,,,0.01,Wunderground v.1.15,2013-03-25 21:58:00,
2013-03-25 18:08:00,38.9,24.1,29.29,NE,55,6.0,6.0,55,0.00,,,0.01,Wunderground v.1.15,2013-03-25 22:08:00,
2013-03-25 18:18:00,38.6,24.2,29.30,East,99,4.0,4.0,56,0.00,,,0.01,Wunderground v.1.15,2013-03-25 22:18:00,
2013-03-25 18:28:00,38.6,24.2,29.30,ESE,117,4.0,4.0,56,0.00,,,0.01,Wunderground v.1.15,2013-03-25 22:28:00,
2013-03-25 18:38:00,38.5,24.1,29.30,NE,51,4.0,7.0,56,0.00,,,0.01,Wunderground v.1.15,2013-03-25 22:38:00,
2013-03-25 18:48:00,38.2,24.3,29.31,ENE,57,3.0,4.0,57,0.00,,,0.01,Wunderground v.1.15,2013-03-25 22:48:00,
2013-03-25 18:59:00,37.9,24.8,29.31,ENE,67,4.0,7.0,59,0.00,,,0.01,Wunderground v.1.15,2013-03-25 22:59:00,
2013-03-25 19:08:00,37.9,24.4,29.31,ENE,60,4.0,14.0,58,0.00,,,0.01,Wunderground v.1.15,2013-03-25 23:08:00,
2013-03-25 19:19:00,37.7,24.6,29.31,ENE,58,2.0,2.0,59,0.00,,,0.01,Wunderground v.1.15,2013-03-25 23:19:00,
2013-03-25 19:28:00,37.5,24.5,29.31,NE,55,2.0,2.0,59,0.00,,,0.01,Wunderground v.1.15,2013-03-25 23:28:00,
2013-03-25 19:39:00,37.3,24.7,29.31,NE,51,1.0,4.0,60,0.00,,,0.01,Wunderground v.1.15,2013-03-25 23:39:00,
2013-03-25 19:48:00,37.3,24.3,29.31,NE,42,2.0,2.0,59,0.00,,,0.01,Wunderground v.1.15,2013-03-25 23:48:00,
2013-03-25 19:58:00,37.2,24.6,29.32,NE,41,1.0,1.0,60,0.00,,,0.01,Wunderground v.1.15,2013-03-25 23:58:00,
2013-03-25 20:08:00,36.8,24.6,29.32,NE,34,0.0,11.0,61,0.00,,,0.01,Wunderground v.1.15,2013-03-26 00:08:00,
2013-03-25 20:19:00,36.7,24.9,29.32,NNE,13,1.0,1.0,62,0.00,,,0.01,Wunderground v.1.15,2013-03-26 00:19:00,
2013-03-25 20:28:00,36.6,25.2,29.32,NNE,13,1.0,1.0,63,0.00,,,0.01,Wunderground v.1.15,2013-03-26 00:28:00,
2013-03-25 20:38:00,36.1,25.1,29.32,NNW,346,1.0,1.0,64,0.00,,,0.01,Wunderground v.1.15,2013-03-26 00:38:00,
2013-03-25 20:48:00,36.2,24.8,29.32,NNW,341,2.0,2.0,63,0.00,,,0.01,Wunderground v.1.15,2013-03-26 00:48:00,
2013-03-25 20:58:00,36.1,25.1,29.32,NNW,340,1.0,2.0,64,0.00,,,0.01,Wunderground v.1.15,2013-03-26 00:58:00,
2013-03-25 21:08:00,35.9,25.3,29.32,NNW,340,2.0,2.0,65,0.00,,,0.01,Wunderground v.1.15,2013-03-26 01:08:00,
2013-03-25 21:18:00,36.0,25.0,29.32,NNW,337,3.0,3.0,64,0.00,,,0.01,Wunderground v.1.15,2013-03-26 01:18:00,
2013-03-25 21:29:00,35.8,25.2,29.32,NNW,335,3.0,9.0,65,0.00,,,0.01,Wunderground v.1.15,2013-03-26 01:29:00,
2013-03-25 21:38:00,35.5,25.6,29.32,North,5,3.0,3.0,67,0.00,,,0.01,Wunderground v.1.15,2013-03-26 01:38:00,
2013-03-25 21:48:00,35.5,26.0,29.32,North,5,3.0,6.0,68,0.00,,,0.01,Wunderground v.1.15,2013-03-26 01:48:00,
2013-03-25 21:59:00,35.7,25.8,29.32,NNE,16,6.0,6.0,67,0.00,,,0.01,Wunderground v.1.15,2013-03-26 01:59:00,
2013-03-25 22:08:00,35.7,25.8,29.32,North,5,5.0,5.0,67,0.00,,,0.01,Wunderground v.1.15,2013-03-26 02:08:00,
2013-03-25 22:18:00,35.6,26.1,29.32,NNE,30,7.0,9.0,68,0.00,,,0.01,Wunderground v.1.15,2013-03-26 02:18:00,
2013-03-25 22:28:00,35.5,26.0,29.32,NNE,19,7.0,7.0,68,0.00,,,0.01,Wunderground v.1.15,2013-03-26 02:28:00,
2013-03-25 22:38:00,35.3,26.1,29.32,NNE,15,7.0,7.0,69,0.00,,,0.01,Wunderground v.1.15,2013-03-26 02:38:00,
2013-03-25 22:48:00,35.2,26.0,29.32,NNE,25,6.0,6.0,69,0.00,,,0.01,Wunderground v.1.15,2013-03-26 02:48:00,
2013-03-25 22:59:00,35.1,25.6,29.31,NNE,24,7.0,7.0,68,0.00,,,0.01,Wunderground v.1.15,2013-03-26 02:59:00,
2013-03-25 23:08:00,35.0,25.9,29.31,NNE,12,6.0,11.0,69,0.00,,,0.01,Wunderground v.1.15,2013-03-26 03:08:00,
2013-03-25 23:18:00,34.9,25.8,29.31,NNE,19,6.0,6.0,69,0.00,,,0.01,Wunderground v.1.15,2013-03-26 03:18:00,
2013-03-25 23:29:00,34.8,25.7,29.31,NNE,25,5.0,6.0,69,0.00,,,0.01,Wunderground v.1.15,2013-03-26 03:29:00,
2013-03-25 23:38:00,34.8,25.7,29.31,NNE,15,4.0,4.0,69,0.00,,,0.01,Wunderground v.1.15,2013-03-26 03:38:00,
2013-03-25 23:49:00,34.7,25.6,29.31,NNE,24,3.0,3.0,69,0.00,,,0.01,Wunderground v.1.15,2013-03-26 03:49:00,
2013-03-25 23:58:00,34.6,25.8,29.31,North,11,1.0,1.0,70,0.00,,,0.01,Wunderground v.1.15,2013-03-26 03:58:00,